Weather History for KFSW - January, 2013

Change the Weather History Date:

Saturday, January 5, 2013

  Actual Average Record
Temperature  
Mean Temperature 30 °F -  
Max Temperature 37 °F 31 °F 60 °F (2012)
Min Temperature 24 °F 12 °F -9 °F (1959)
Degree Days  
Heating Degree Days 34    
Moisture  
Dew Point 27 °F    
Average Humidity 86    
Maximum Humidity 100    
Minimum Humidity 74    
Precipitation  
Precipitation 0.02 in - - ()
Sea Level Pressure  
Sea Level Pressure 30.12 in    
Wind  
Wind Speed 10 mph (SSW)    
Max Wind Speed 21 mph    
Max Gust Speed 28 mph    
Visibility 10 miles    
Events Snow    
Averages and records for this station are not official NWS values.
T = Trace of Precipitation, MM = Missing Value Source: NWS Daily Summary

Daily Weather History Graph

Daily Weather History Graph

Search for Another Location

Airport or City:

Trip Planner

Search our weather history database for the weather conditions in past years. The results will help you decide how hot, cold, wet, or windy it might be!

Date:

Astronomy

Jan. 05, 2013 Rise Set
Actual Time 7:29 AM CST 4:52 PM CST
Civil Twilight 6:58 AM CST 5:23 PM CST
Nautical Twilight 6:24 AM CST 5:57 PM CST
Astronomical Twilight 5:51 AM CST 6:30 PM CST
Moon 12:35 AM CST (1/5) 11:43 AM CST (1/5)
Length of Visible Light 10h 24m
Length of Day
9h 23m
Last Quarter, 44% of the Moon is Illuminated
Jan 5
Last Quarter
Jan 11
New
Jan 18
First Quarter
Jan 26
Full
Feb 3
Last Quarter

Hourly Weather History & Observations

Time (CST) Temp. Windchill Dew Point Humidity Pressure Visibility Wind Dir Wind Speed Gust Speed Precip Events Conditions
12:15 AM 26.6 °F 20.0 °F 21.2 °F 80% 30.23 in 10.0 mi SSW 5.8 mph - N/A   Clear
12:35 AM 24.8 °F 19.1 °F 21.2 °F 86% 30.22 in 10.0 mi SSW 4.6 mph - N/A   Clear
12:55 AM 24.8 °F 16.9 °F 21.2 °F 86% 30.22 in 10.0 mi South 6.9 mph - N/A   Clear
1:15 AM 24.8 °F 16.9 °F 21.2 °F 86% 30.22 in 10.0 mi SSW 6.9 mph - N/A   Clear
1:35 AM 26.6 °F 17.5 °F 21.2 °F 80% 30.22 in 10.0 mi SSW 9.2 mph - N/A   Clear
1:55 AM 26.6 °F 16.8 °F 21.2 °F 80% 30.22 in 10.0 mi SSW 10.4 mph - N/A   Clear
2:15 AM 26.6 °F 18.2 °F 21.2 °F 80% 30.22 in 10.0 mi SSW 8.1 mph - N/A   Clear
2:35 AM 26.6 °F 18.2 °F 21.2 °F 80% 30.22 in 10.0 mi SSW 8.1 mph - N/A   Clear
2:55 AM 26.6 °F 17.5 °F 21.2 °F 80% 30.22 in 10.0 mi SSW 9.2 mph - N/A   Clear
3:15 AM 26.6 °F 17.5 °F 21.2 °F 80% 30.22 in 10.0 mi SSW 9.2 mph - N/A   Clear
3:35 AM 26.6 °F 16.8 °F 21.2 °F 80% 30.22 in 10.0 mi SSW 10.4 mph - N/A   Clear
3:55 AM 26.6 °F 16.8 °F 21.2 °F 80% 30.21 in 10.0 mi SSW 10.4 mph - N/A   Clear
4:15 AM 26.6 °F 18.2 °F 21.2 °F 80% 30.20 in 10.0 mi SSW 8.1 mph - N/A   Clear
4:35 AM 24.8 °F 16.1 °F 21.2 °F 86% 30.20 in 10.0 mi SSW 8.1 mph - N/A   Clear
4:55 AM 24.8 °F 16.1 °F 21.2 °F 86% 30.19 in 10.0 mi SSW 8.1 mph - N/A   Clear
5:15 AM 24.8 °F 16.9 °F 21.2 °F 86% 30.18 in 10.0 mi SSW 6.9 mph - N/A   Clear
5:35 AM 24.8 °F 16.1 °F 21.2 °F 86% 30.18 in 10.0 mi SSW 8.1 mph - N/A   Clear
5:55 AM 26.6 °F 16.8 °F 21.2 °F 80% 30.19 in 10.0 mi SSW 10.4 mph - N/A   Clear
6:15 AM 26.6 °F 16.8 °F 21.2 °F 80% 30.18 in 10.0 mi SSW 10.4 mph - N/A   Clear
6:35 AM 26.6 °F 16.8 °F 21.2 °F 80% 30.18 in 10.0 mi SSW 10.4 mph - N/A   Clear
6:55 AM 26.6 °F 16.2 °F 21.2 °F 80% 30.18 in 10.0 mi SSW 11.5 mph - N/A   Clear
7:15 AM 26.6 °F 16.2 °F 21.2 °F 80% 30.19 in 10.0 mi SSW 11.5 mph - N/A   Clear
7:35 AM 26.6 °F 15.7 °F 21.2 °F 80% 30.20 in 10.0 mi SSW 12.7 mph - N/A   Clear
7:55 AM 26.6 °F 16.8 °F 21.2 °F 80% 30.19 in 10.0 mi SSW 10.4 mph - N/A   Clear
8:15 AM 26.6 °F 18.2 °F 21.2 °F 80% 30.19 in 10.0 mi SSW 8.1 mph - N/A   Clear
8:35 AM 26.6 °F 16.8 °F 21.2 °F 80% 30.19 in 10.0 mi SSW 10.4 mph - N/A   Clear
8:55 AM 28.4 °F 18.5 °F 23.0 °F 80% 30.19 in 10.0 mi SSW 11.5 mph - N/A   Clear
9:15 AM 28.4 °F 18.5 °F 23.0 °F 80% 30.20 in 10.0 mi SSW 11.5 mph - N/A   Clear
9:55 AM 30.2 °F 20.2 °F 24.8 °F 80% 30.21 in 10.0 mi SSW 12.7 mph - N/A   Mostly Cloudy
10:15 AM 30.2 °F 20.2 °F 26.6 °F 86% 30.21 in 7.0 mi SW 12.7 mph - N/A Snow Light Snow
10:55 AM 32.0 °F 24.8 °F 30.2 °F 93% 30.19 in 0.8 mi South 8.1 mph - N/A Snow Light Snow
11:15 AM 32.0 °F 24.8 °F 30.2 °F 93% 30.18 in 2.0 mi South 8.1 mph - N/A Snow Light Snow
11:35 AM 32.0 °F 25.6 °F 30.2 °F 93% 30.15 in 7.0 mi South 6.9 mph - 0.01 in Snow Light Snow
11:55 AM 33.8 °F 27.0 °F 32.0 °F 93% 30.13 in 10.0 mi South 8.1 mph - 0.02 in   Overcast
12:15 PM 33.8 °F 25.8 °F 32.0 °F 93% 30.11 in 10.0 mi South 10.4 mph - N/A   Overcast
12:35 PM 33.8 °F 27.0 °F 33.8 °F 100% 30.10 in 10.0 mi SSW 8.1 mph - N/A   Overcast
12:55 PM 35.6 °F 27.1 °F 33.8 °F 93% 30.08 in 10.0 mi South 12.7 mph 16.1 mph N/A   Overcast
1:15 PM 35.6 °F 27.5 °F 33.8 °F 93% 30.06 in 10.0 mi South 11.5 mph - N/A   Overcast
1:35 PM 37.4 °F 29.8 °F 33.8 °F 87% 30.05 in 10.0 mi SSW 11.5 mph 19.6 mph N/A   Scattered Clouds
1:55 PM 35.6 °F 26.6 °F 33.8 °F 93% 30.05 in 10.0 mi SSW 13.8 mph - N/A   Mostly Cloudy
2:15 PM 35.6 °F 26.2 °F 33.8 °F 93% 30.05 in 10.0 mi SSW 15.0 mph - N/A   Light Drizzle
2:35 PM 35.6 °F 27.1 °F 33.8 °F 93% 30.04 in 10.0 mi SSW 12.7 mph 16.1 mph N/A   Light Drizzle
2:55 PM 35.6 °F 27.5 °F 32.0 °F 87% 30.04 in 10.0 mi SSW 11.5 mph 18.4 mph N/A   Overcast
3:15 PM 35.6 °F 27.5 °F 32.0 °F 87% 30.04 in 10.0 mi SSW 11.5 mph 19.6 mph N/A   Overcast
3:35 PM 35.6 °F 27.1 °F 33.8 °F 93% 30.04 in 10.0 mi SSW 12.7 mph 20.7 mph N/A   Overcast
3:55 PM 35.6 °F 27.1 °F 32.0 °F 87% 30.03 in 10.0 mi SSW 12.7 mph - N/A   Overcast
4:15 PM 35.6 °F 26.2 °F 32.0 °F 87% 30.04 in 10.0 mi SSW 15.0 mph 20.7 mph N/A   Overcast
4:55 PM 35.6 °F 27.1 °F 33.8 °F 93% 30.04 in 10.0 mi SSW 12.7 mph 19.6 mph N/A   Overcast
5:15 PM 35.6 °F 28.0 °F 32.0 °F 87% 30.04 in 10.0 mi SW 10.4 mph - N/A   Overcast
5:35 PM 35.6 °F 28.0 °F 32.0 °F 87% 30.05 in 10.0 mi SSW 10.4 mph - N/A   Overcast
5:55 PM 35.6 °F 27.5 °F 32.0 °F 87% 30.04 in 10.0 mi South 11.5 mph - N/A   Overcast
6:15 PM 35.6 °F 27.1 °F 33.8 °F 93% 30.04 in 10.0 mi SSW 12.7 mph - N/A   Overcast
6:35 PM 35.6 °F 26.6 °F 32.0 °F 87% 30.04 in 10.0 mi SSW 13.8 mph 18.4 mph N/A   Overcast
6:55 PM 33.8 °F 25.3 °F 32.0 °F 93% 30.04 in 10.0 mi SSW 11.5 mph 19.6 mph N/A   Overcast
7:15 PM 33.8 °F 24.3 °F 32.0 °F 93% 30.04 in 10.0 mi SSW 13.8 mph 20.7 mph N/A   Overcast
7:35 PM 33.8 °F 25.3 °F 32.0 °F 93% 30.04 in 10.0 mi SSW 11.5 mph 18.4 mph N/A   Overcast
7:55 PM 33.8 °F 24.8 °F 32.0 °F 93% 30.03 in 10.0 mi SSW 12.7 mph 17.3 mph N/A   Mostly Cloudy
8:15 PM 33.8 °F 24.8 °F 32.0 °F 93% 30.03 in 10.0 mi SSW 12.7 mph - N/A   Mostly Cloudy
8:35 PM 33.8 °F 24.8 °F 32.0 °F 93% 30.03 in 10.0 mi SSW 12.7 mph 18.4 mph N/A   Overcast
8:55 PM 33.8 °F 25.3 °F 32.0 °F 93% 30.03 in 10.0 mi SSW 11.5 mph - N/A   Overcast
9:15 PM 33.8 °F 25.8 °F 32.0 °F 93% 30.02 in 10.0 mi SSW 10.4 mph - N/A   Overcast
9:35 PM 35.6 °F 28.0 °F 32.0 °F 87% 30.02 in 10.0 mi SSW 10.4 mph - N/A   Overcast
9:55 PM 33.8 °F 27.0 °F 32.0 °F 93% 30.01 in 10.0 mi SW 8.1 mph - N/A   Overcast
10:15 PM 35.6 °F 27.5 °F 32.0 °F 87% 30.01 in 10.0 mi SW 11.5 mph - N/A   Overcast
10:35 PM 35.6 °F 28.0 °F 32.0 °F 87% 30.02 in 10.0 mi West 10.4 mph - N/A   Overcast
10:55 PM 33.8 °F 22.2 °F 28.4 °F 81% 30.02 in 10.0 mi WNW 20.7 mph 27.6 mph N/A   Overcast
11:15 PM 30.2 °F 18.1 °F 24.8 °F 80% 30.04 in 10.0 mi WNW 18.4 mph 24.2 mph N/A   Overcast
11:35 PM 30.2 °F 18.1 °F 23.0 °F 75% 30.05 in 10.0 mi WNW 18.4 mph 25.3 mph N/A   Mostly Cloudy
11:55 PM 28.4 °F 16.2 °F 21.2 °F 74% 30.04 in 10.0 mi WNW 17.3 mph 25.3 mph N/A   Scattered Clouds